Regional Weather Roundup
Issued by NWS New Orleans/Baton Rouge, LA

Home | Current Version | Previous Version | Text Only | Print | Product List | Glossary Off
Versions: 1 2 3 4 5 6 7 8 9 10 11 12 13 14 15 16 17 18 19 20 21 22 23 24 25 26 27 28 29 30 31 32 33 34 35 36 37 38 39 40 41 42 43 44 45 46 47 48 49 50

563
ASUS44 KLIX 221005
RWRLIX
NEW ORLEANS REGIONAL WEATHER ROUNDUP
NATIONAL WEATHER SERVICE NEW ORLEANS LA
400 AM CST MON DEC 22 2014

NOTE: "FAIR" INDICATES FEW OR NO CLOUDS BELOW 12,000 FEET WITH NO
      SIGNIFICANT WEATHER AND/OR OBSTRUCTIONS TO VISIBILITY.
      SKY/WX - SKY CONDITION AND SIGNIFICANT WEATHER.
      TMP - AIR TEMPERATURE.     DP    - DEWPOINT TEMPERATURE.
      RH  - RELATIVE HUMIDITY.   PRES  - PRESSURE.
      HI  - HEAT INDEX.          WCI   - WIND CHILL INDEX.

*  THESE STATIONS ARE NOT NWS OR FAA STATIONS AND ARE NOT UNDER
   NWS QUALITY CONTROL.

LAZ038-040-048-061>063-065>067-069-221100-
SOUTHEAST LOUISIANA

CITY           SKY/WX    TMP DP  RH WIND       PRES   REMARKS
N.O. AUDUBON     N/A     60  58  91 MISG        N/A
N.O. INTL ARPT CLOUDY    58  56  93 E5        29.86F FOG
N.O. LAKEFRONT CLOUDY    58  56  93 E8        29.88S FOG
N.O. DOWNTOWN* CLOUDY    57  54  88 E5        29.87F
SLIDELL        CLOUDY    57  56  96 E5        29.88R FOG
BATON ROUGE    FOG       54  53  97 E6        29.87F VSB 1/4
BOOTHVILLE     PTCLDY    62  62 100 S5        29.87S FOG
BELLE CHASSE   CLOUDY    59  58  96 CALM      29.87S FOG
BOGALUSA*      FOG       56  54  91 CALM      29.90S VSB 1/2
GALLIANO*      CLOUDY    56  55  99 MISG      29.85F FOG
NEW ROADS*     FOG       53  52  97 CALM      29.87F VSB 1
GONZALES*      CLOUDY    57  57 100 CALM      29.87F FOG
HAMMOND*       NOT AVBL
HOUMA*         LGT RAIN  57  57  99 CALM      29.86S
PORT FOURCHON* FOG       61  59  94 NE6       29.88F VSB 1

$$

MSZ070-080>082-221100-
SOUTHERN MISSISSIPPI

CITY           SKY/WX    TMP DP  RH WIND       PRES   REMARKS
MCCOMB         LGT RAIN  53  52  96 SE3       29.87F VSB 1/2
GULFPORT       CLOUDY    57  55  93 E5        29.87F
BILOXI         CLOUDY    58  58 100 E6        29.87F
PASCAGOULA     CLOUDY    57  56  96 E5        29.88F

$$

COASTAL OBSERVATIONS
LAKE AND NEARSHORE STATIONS

STATION/POSITION TIME  TEMP    WIND        PRES    WAVE
                       AIR SEA DIR/SP/G            HT/PER
                 (UTC) (F)     (DEG/KT/KT) (MB)    (FT/S)
PASCAGOULA       1000   57      60/ 10/ 12 1011.1
WAVELAND YACHT   1000   58     110/  9/ 12 1010.6
GRAND ISLE       1000   61 60   80/  4/  6 1011.4
SOUTHWEST PASS   1000   66                 1011.5
NEW CANAL        1000   57 56  100/  2/  6 1011.7
SHELL BEACH      1000   58 57  100/  6/ 12 1011.3

OFFSHORE STATIONS

STATION/POSITION TIME  TEMP    WIND        PRES    WAVE
                       AIR SEA DIR/SP/G            HT/PER
                 (UTC) (F)     (DEG/KT/KT) (MB)    (FT/S)
64 S DAUPHIN ISL 1000   71 74  140/ 12/ 16 1011.3    3/ 5

$$




USA.gov is the U.S. government's official web portal to all federal, state and local government web resources and services.